timestamp,wind_dir_avg,wind_spd_avg,wind_spd_max_dir,wind_spd_gust,battery_voltage,lat,long
2023-05-29 00:04:00+00:00,196.0,9.29,214.0,11.22,12.49,47.59359,-54.27349
2023-05-29 00:14:00+00:00,198.0,9.62,214.0,11.76,12.41,47.59359,-54.27349
2023-05-29 00:24:00+00:00,201.0,8.64,192.0,9.9,12.41,47.59359,-54.27349
2023-05-29 00:34:00+00:00,204.0,10.25,212.0,13.05,12.41,47.59359,-54.27349
2023-05-29 00:44:00+00:00,206.0,8.98,217.0,11.44,12.41,47.59359,-54.27349
2023-05-29 00:54:00+00:00,210.0,7.75,219.0,10.63,12.41,47.59359,-54.27349
2023-05-29 01:04:00+00:00,212.0,7.84,220.0,11.19,12.41,47.59359,-54.27349
2023-05-29 01:14:00+00:00,211.0,9.77,215.0,11.89,12.33,47.59359,-54.27349
2023-05-29 01:24:00+00:00,206.0,9.27,215.0,11.22,12.33,47.59359,-54.27349
2023-05-29 01:34:00+00:00,208.0,9.43,217.0,11.64,12.33,47.59359,-54.27349
2023-05-29 01:44:00+00:00,219.0,8.31,224.0,10.29,12.33,47.59359,-54.27349
2023-05-29 01:54:00+00:00,211.0,8.49,220.0,10.34,12.33,47.59359,-54.27349
2023-05-29 02:04:00+00:00,224.0,6.1,225.0,7.41,12.33,47.59359,-54.27349
2023-05-29 02:14:00+00:00,217.0,6.4,218.0,7.52,12.33,47.59359,-54.27349
2023-05-29 02:24:00+00:00,208.0,8.13,215.0,8.79,12.33,47.59359,-54.27349
2023-05-29 02:34:00+00:00,214.0,7.0,214.0,8.18,12.33,47.59359,-54.27349
2023-05-29 02:44:00+00:00,218.0,5.76,238.0,7.14,12.33,47.59359,-54.27349
2023-05-29 02:54:00+00:00,184.0,6.8,185.0,7.37,12.33,47.59359,-54.27349
2023-05-29 03:04:00+00:00,205.0,6.89,208.0,7.68,12.33,47.59359,-54.27349
2023-05-29 03:14:01+00:00,202.0,7.42,201.0,7.98,12.25,47.59359,-54.27349
2023-05-29 03:24:01+00:00,203.0,7.67,199.0,8.76,12.25,47.59359,-54.27349
2023-05-29 03:34:01+00:00,200.0,8.42,203.0,9.13,12.25,47.59359,-54.27349
2023-05-29 03:44:01+00:00,207.0,7.94,208.0,9.28,12.25,47.59359,-54.27349
2023-05-29 03:54:01+00:00,206.0,8.59,207.0,9.51,12.25,47.59359,-54.27349
2023-05-29 04:04:01+00:00,197.0,9.31,204.0,11.04,12.25,47.59359,-54.27349
2023-05-29 04:14:00+00:00,205.0,8.73,212.0,10.9,12.25,47.59359,-54.27349
2023-05-29 04:24:00+00:00,203.0,8.76,200.0,10.18,12.25,47.59359,-54.27349
2023-05-29 04:34:00+00:00,207.0,9.05,207.0,10.11,12.25,47.59359,-54.27349
2023-05-29 04:44:00+00:00,206.0,8.28,218.0,10.0,12.25,47.59359,-54.27349
2023-05-29 04:54:00+00:00,207.0,6.74,207.0,7.75,12.25,47.59359,-54.27349
2023-05-29 05:04:00+00:00,188.0,8.52,188.0,9.34,12.25,47.59359,-54.27349
2023-05-29 05:14:01+00:00,197.0,6.58,197.0,7.25,12.25,47.59359,-54.27349
2023-05-29 05:24:01+00:00,227.0,6.13,223.0,8.01,12.25,47.59359,-54.27349
2023-05-29 05:34:01+00:00,215.0,5.72,219.0,7.25,12.25,47.59359,-54.27349
2023-05-29 05:44:01+00:00,247.0,5.71,248.0,6.58,12.25,47.59359,-54.27349
2023-05-29 05:54:01+00:00,232.0,4.45,233.0,4.88,12.25,47.59359,-54.27349
2023-05-29 06:04:01+00:00,224.0,5.63,224.0,6.67,12.25,47.59359,-54.27349
2023-05-29 06:14:00+00:00,232.0,5.32,235.0,6.81,12.17,47.59359,-54.27349
2023-05-29 06:24:00+00:00,226.0,5.17,238.0,6.7,12.17,47.59359,-54.27349
2023-05-29 06:34:00+00:00,226.0,4.95,234.0,6.9,12.17,47.59359,-54.27349
2023-05-29 06:44:00+00:00,216.0,5.45,216.0,6.11,12.17,47.59359,-54.27349
2023-05-29 06:54:00+00:00,222.0,5.07,223.0,5.66,12.17,47.59359,-54.27349
2023-05-29 07:04:00+00:00,218.0,5.51,228.0,6.8,12.17,47.59359,-54.27349
2023-05-29 07:14:01+00:00,247.0,5.54,244.0,6.08,12.17,47.59359,-54.27349
2023-05-29 07:24:01+00:00,245.0,5.35,245.0,5.97,12.17,47.59359,-54.27349
2023-05-29 07:34:01+00:00,232.0,2.72,253.0,5.68,12.17,47.59359,-54.27349
2023-05-29 07:44:01+00:00,181.0,2.67,182.0,2.86,12.17,47.59359,-54.27349
2023-05-29 07:54:01+00:00,197.0,3.02,197.0,3.17,12.17,47.59359,-54.27349
2023-05-29 08:04:01+00:00,197.0,3.3,196.0,3.76,12.17,47.59359,-54.27349
2023-05-29 08:14:01+00:00,207.0,4.4,208.0,5.13,12.17,47.59359,-54.27349
2023-05-29 08:24:01+00:00,221.0,4.15,234.0,5.29,12.17,47.59359,-54.27349
2023-05-29 08:34:01+00:00,241.0,4.94,246.0,6.4,12.17,47.59359,-54.27349
2023-05-29 08:44:01+00:00,256.0,5.72,263.0,6.57,12.17,47.59359,-54.27349
2023-05-29 08:54:01+00:00,278.0,3.51,277.0,5.65,12.17,47.59359,-54.27349
2023-05-29 09:04:01+00:00,0.0,1.11,5.0,1.82,12.17,47.59359,-54.27349
2023-05-29 09:14:00+00:00,23.0,0.88,36.0,1.14,12.17,47.59359,-54.27349
2023-05-29 09:24:00+00:00,8.0,3.35,57.0,6.93,12.17,47.59359,-54.27349
2023-05-29 09:34:00+00:00,340.0,6.07,319.0,8.21,12.17,47.59359,-54.27349
2023-05-29 09:44:00+00:00,357.0,7.16,359.0,8.3,12.17,47.59359,-54.27349
2023-05-29 09:54:00+00:00,14.0,8.62,30.0,10.21,12.17,47.59359,-54.27349
2023-05-29 10:04:00+00:00,15.0,7.47,3.0,9.04,12.17,47.59359,-54.27349
2023-05-29 10:14:00+00:00,19.0,8.35,22.0,9.79,12.41,47.59359,-54.27349
2023-05-29 10:24:00+00:00,16.0,8.71,16.0,9.78,12.41,47.59359,-54.27349
2023-05-29 10:34:00+00:00,6.0,7.63,2.0,8.99,12.41,47.59359,-54.27349
2023-05-29 10:44:00+00:00,9.0,7.58,17.0,9.4,12.41,47.59359,-54.27349
2023-05-29 10:54:00+00:00,3.0,9.59,4.0,10.7,12.41,47.59359,-54.27349
2023-05-29 11:04:00+00:00,358.0,8.93,358.0,9.93,12.41,47.59359,-54.27349
2023-05-29 11:14:00+00:00,5.0,7.03,3.0,7.85,13.44,47.59359,-54.27349
2023-05-29 11:24:00+00:00,8.0,7.22,15.0,9.05,13.44,47.59359,-54.27349
2023-05-29 11:34:00+00:00,4.0,8.2,359.0,8.99,13.44,47.59359,-54.27349
2023-05-29 11:44:00+00:00,13.0,7.79,11.0,9.02,13.44,47.59359,-54.27349
2023-05-29 11:54:00+00:00,14.0,8.73,13.0,9.69,13.44,47.59359,-54.27349
2023-05-29 12:04:00+00:00,19.0,6.93,9.0,9.89,13.44,47.59359,-54.27349
2023-05-29 12:14:01+00:00,6.0,7.29,2.0,8.78,13.6,47.59359,-54.27349
2023-05-29 12:24:01+00:00,10.0,7.46,13.0,9.18,13.6,47.59359,-54.27349
2023-05-29 12:34:01+00:00,11.0,7.01,16.0,7.69,13.6,47.59359,-54.27349
2023-05-29 12:44:01+00:00,1.0,8.95,5.0,9.96,13.6,47.59359,-54.27349
2023-05-29 12:54:01+00:00,358.0,9.72,359.0,10.4,13.6,47.59359,-54.27349
2023-05-29 13:04:01+00:00,12.0,7.6,16.0,8.21,13.6,47.59359,-54.27349
2023-05-29 13:14:00+00:00,9.0,6.65,8.0,7.63,13.68,47.59359,-54.27349
2023-05-29 13:24:00+00:00,10.0,7.11,16.0,7.95,13.68,47.59359,-54.27349
2023-05-29 13:34:00+00:00,9.0,6.14,2.0,7.79,13.68,47.59359,-54.27349
2023-05-29 13:44:00+00:00,21.0,8.45,30.0,9.46,13.68,47.59359,-54.27349
2023-05-29 13:54:00+00:00,359.0,9.29,359.0,10.19,13.68,47.59359,-54.27349
2023-05-29 14:04:00+00:00,0.0,8.84,0.0,9.95,13.68,47.59359,-54.27349
2023-05-29 14:14:01+00:00,11.0,7.2,5.0,8.48,14.32,47.59359,-54.27349
2023-05-29 14:24:01+00:00,12.0,7.67,16.0,9.49,14.32,47.59359,-54.27349
2023-05-29 14:34:01+00:00,1.0,7.96,4.0,9.01,14.32,47.59359,-54.27349
2023-05-29 14:44:01+00:00,1.0,7.7,1.0,8.68,14.32,47.59359,-54.27349
2023-05-29 14:54:01+00:00,6.0,7.15,32.0,9.1,14.32,47.59359,-54.27349
2023-05-29 15:04:01+00:00,354.0,7.3,327.0,8.64,14.32,47.59359,-54.27349
2023-05-29 15:14:00+00:00,21.0,8.44,16.0,10.39,13.84,47.59359,-54.27349
2023-05-29 15:24:00+00:00,4.0,10.14,18.0,12.04,13.84,47.59359,-54.27349
2023-05-29 15:34:00+00:00,359.0,11.17,0.0,12.01,13.84,47.59359,-54.27349
2023-05-29 15:44:00+00:00,1.0,11.2,359.0,12.72,13.84,47.59359,-54.27349
2023-05-29 15:54:00+00:00,0.0,11.39,0.0,12.73,13.84,47.59359,-54.27349
2023-05-29 16:04:00+00:00,2.0,10.86,3.0,12.36,13.84,47.59359,-54.27349
2023-05-29 16:14:00+00:00,9.0,9.76,5.0,11.78,13.76,47.59359,-54.27349
2023-05-29 16:24:00+00:00,0.0,8.8,0.0,10.16,13.76,47.59359,-54.27349
2023-05-29 16:34:00+00:00,11.0,6.99,18.0,8.25,13.76,47.59359,-54.27349
2023-05-29 16:44:00+00:00,19.0,8.75,18.0,10.26,13.76,47.59359,-54.27349
2023-05-29 16:54:00+00:00,0.0,7.35,358.0,8.56,13.76,47.59359,-54.27349
2023-05-29 17:04:00+00:00,9.0,8.55,3.0,10.66,13.76,47.59359,-54.27349
2023-05-29 17:14:00+00:00,25.0,7.99,29.0,9.43,13.68,47.59359,-54.27349
2023-05-29 17:24:00+00:00,1.0,9.03,2.0,9.63,13.68,47.59359,-54.27349
2023-05-29 17:34:00+00:00,11.0,7.28,11.0,8.37,13.68,47.59359,-54.27349
2023-05-29 17:44:00+00:00,19.0,6.16,42.0,7.53,13.68,47.59359,-54.27349
2023-05-29 17:54:00+00:00,2.0,6.52,4.0,7.29,13.68,47.59359,-54.27349
2023-05-29 18:04:00+00:00,25.0,8.43,33.0,9.89,13.68,47.59359,-54.27349
2023-05-29 18:14:00+00:00,29.0,7.3,34.0,8.4,13.68,47.59359,-54.27349
2023-05-29 18:24:00+00:00,26.0,7.8,30.0,8.72,13.68,47.59359,-54.27349
2023-05-29 18:34:00+00:00,24.0,8.9,23.0,9.68,13.68,47.59359,-54.27349
2023-05-29 18:44:00+00:00,37.0,8.48,36.0,9.82,13.68,47.59359,-54.27349
2023-05-29 18:54:00+00:00,31.0,8.68,34.0,9.9,13.68,47.59359,-54.27349
2023-05-29 19:04:00+00:00,22.0,8.23,33.0,9.93,13.68,47.59359,-54.27349
2023-05-29 19:14:00+00:00,7.0,9.29,18.0,10.75,13.68,47.59359,-54.27349
2023-05-29 19:24:00+00:00,37.0,8.5,37.0,9.77,13.68,47.59359,-54.27349
2023-05-29 19:34:00+00:00,5.0,9.27,1.0,11.23,13.68,47.59359,-54.27349
2023-05-29 19:44:00+00:00,2.0,8.21,3.0,9.03,13.68,47.59359,-54.27349
2023-05-29 19:54:00+00:00,32.0,9.37,32.0,10.43,13.68,47.59359,-54.27349
2023-05-29 20:04:00+00:00,28.0,8.94,26.0,10.58,13.68,47.59359,-54.27349
2023-05-29 20:14:00+00:00,27.0,9.45,33.0,10.69,13.68,47.59359,-54.27349
2023-05-29 20:24:00+00:00,359.0,9.89,358.0,11.08,13.68,47.59359,-54.27349
2023-05-29 20:34:00+00:00,1.0,10.3,3.0,11.51,13.68,47.59359,-54.27349
2023-05-29 20:44:00+00:00,357.0,9.98,359.0,11.77,13.68,47.59359,-54.27349
2023-05-29 20:54:00+00:00,356.0,9.95,344.0,11.27,13.68,47.59359,-54.27349
2023-05-29 21:04:00+00:00,17.0,8.98,27.0,10.4,13.68,47.59359,-54.27349
2023-05-29 21:14:00+00:00,1.0,9.27,2.0,10.53,13.68,47.59359,-54.27349
2023-05-29 21:24:00+00:00,26.0,9.23,28.0,10.44,13.68,47.59359,-54.27349
2023-05-29 21:34:00+00:00,3.0,9.43,14.0,12.35,13.68,47.59359,-54.27349
2023-05-29 21:44:00+00:00,19.0,8.88,24.0,10.57,13.68,47.59359,-54.27349
2023-05-29 21:54:00+00:00,13.0,12.83,15.0,13.83,13.68,47.59359,-54.27349
2023-05-29 22:04:00+00:00,16.0,10.02,14.0,11.6,13.68,47.59359,-54.27349
2023-05-29 22:14:00+00:00,22.0,10.03,25.0,11.0,13.37,47.59359,-54.27349
2023-05-29 22:24:00+00:00,26.0,8.36,27.0,9.66,13.37,47.59359,-54.27349
2023-05-29 22:34:00+00:00,13.0,9.42,13.0,10.79,13.37,47.59359,-54.27349
2023-05-29 22:44:00+00:00,26.0,9.34,30.0,10.7,13.37,47.59359,-54.27349
2023-05-29 22:54:00+00:00,16.0,9.38,15.0,10.64,13.37,47.59359,-54.27349
2023-05-29 23:04:00+00:00,5.0,7.56,2.0,8.49,13.37,47.59359,-54.27349
2023-05-29 23:14:00+00:00,22.0,8.99,21.0,9.95,13.05,47.59359,-54.27349
2023-05-29 23:24:00+00:00,17.0,8.38,16.0,9.69,13.05,47.59359,-54.27349
2023-05-29 23:34:00+00:00,24.0,7.72,22.0,9.4,13.05,47.59359,-54.27349
2023-05-29 23:44:00+00:00,19.0,8.37,22.0,9.46,13.05,47.59359,-54.27349
2023-05-29 23:54:00+00:00,11.0,7.22,13.0,8.51,13.05,47.59359,-54.27349
